Location: Observatorio Ernesto Juarez Davis
(29.2175°N, 110.7606°W)
Time: 20:14:15
(UTC-07:00)

Envisat - Visible Passes

Search period start: 07 August 2020 00:00
Search period end: 17 August 2020 00:00
Orbit: 764 x 766 km, 98.1° (Epoch: 07 August)

Date Brightness Start Highest point End Pass type
(mag) Time Alt. Az. Time Alt. Az. Time Alt. Az.
07 Aug 6.0 05:18:45 10° ENE 05:21:21 14° E 05:23:57 10° SE visible
10 Aug 6.4 05:09:27 10° E 05:09:55 10° E 05:10:24 10° E visible
15 Aug 5.9 05:21:09 10° ENE 05:24:08 16° E 05:27:07 10° SE visible
